Regional Weather Roundup
Issued by NWS

Home | Current Version | Previous Version | Text Only | Print | Product List | Glossary Off
Versions: 1 2 3 4 5 6 7 8 9 10 11 12 13 14 15 16 17 18 19 20 21 22 23 24 25 26 27 28 29 30 31 32 33 34 35 36 37 38 39 40 41 42 43 44 45 46 47 48 49 50

000
ASUS43 KFSD 010610
RWRSD

WEATHER ROUNDUP FOR SOUTH DAKOTA
NATIONAL WEATHER SERVICE SIOUX FALLS SD
1200 AM CST SUN MAR 01 2015

NOTE: "FAIR" INDICATES FEW OR NO CLOUDS BELOW 12,000 FEET WITH NO
SIGNIFICANT WEATHER AND/OR OBSTRUCTIONS TO VISIBILITY.


SDZ001>005-009-010-012>017-010700-
NORTHWEST AND NORTH CENTRAL SOUTH DAKOTA

CITY           SKY/WX    TMP DP  RH WIND       PRES   REMARKS
BUFFALO          N/A     10   6  84 W10       30.08F WCI  -4
FAITH            N/A     13   5  70 W9        30.19S WCI   1
MOBRIDGE       CLEAR      7   2  80 CALM      30.19S
$$

SDZ012>016-024>037-041>051-057-063-072>074-010700-
SOUTHWEST AND SOUTH CENTRAL SOUTH DAKOTA

CITY           SKY/WX    TMP DP  RH WIND       PRES   REMARKS
RAPID CTY ARPT CLOUDY    10   6  84 W3        30.18S
PIERRE         PTCLDY     7   1  76 W6        30.25R WCI  -3
CUSTER         CLOUDY     9   5  84 SW5       30.01S WCI   1
ELLSWORTH AFB  CLOUDY    13   7  79 N5        30.17S WCI   5
PHILIP         CLOUDY    11   2  67 W5        30.24S WCI   3
PINE RIDGE     CLOUDY    19   6  57 NE7       30.17S WCI  10
WINNER         CLOUDY    16   0  49 NW7       30.24S WCI   6
$$

SDZ004>011-016>023-039-040-010700-
NORTHEAST SOUTH DAKOTA

CITY           SKY/WX    TMP DP  RH WIND       PRES   REMARKS
ABERDEEN       PTCLDY     4   0  83 CALM      30.25S
WATERTOWN      PTCLDY    13   5  70 NW6       30.18S WCI   4
SISSETON         N/A     10   3  73 NW10      30.22S WCI  -4
$$

SDZ017-020-022-023-036>040-048>070-010700-
SOUTHEAST SOUTH DAKOTA

CITY           SKY/WX    TMP DP  RH WIND       PRES   REMARKS
SIOUX FALLS    CLEAR     17  11  77 SW8       30.23S WCI   7
HURON          CLEAR      8   4  83 NW9       30.26R WCI  -5
CHAMBERLAIN    CLEAR     12   8  86 CALM      30.26R
MITCHELL       CLEAR     14  10  84 NW9       30.27R WCI   2
YANKTON        PTCLDY    19  10  68 SW10      30.27S WCI   8
$$

ABBREVIATIONS USED IN REMARKS
   TC - TEMPERATURE IN CELSIUS
  WCI - WIND CHILL INDEX
   HX - HEAT INDEX
  VSB - VISIBILITY




USA.gov is the U.S. government's official web portal to all federal, state and local government web resources and services.